KX4BE Weather Reports


Display with metric or nautical units.
time (UTC)temp
F
wind
direction
speed
MPH
gust
MPH
rain 1hr
in
rain 24hr
in
rain mn
in
humidity
%
barometer
mb
20260831014346 81 70 0.0 1.0 0.00 0.00 0.00 78 1022.0
20260831013844 81 70 1.0 1.0 0.00 0.00 0.00 78 1021.9
20260831013339 81 70 1.0 2.0 0.00 0.00 0.00 77 1021.8
20260831012834 81 70 327.0 327.0 0.00 0.00 0.00 77 1021.2
20260831012356 82 70 1.0 1.0 0.00 0.00 0.00 77 1021.6
20260831011852 82 70 1.0 1.0 0.00 0.00 0.00 76 1021.6
20260831011334 82 70 1.0 1.0 0.00 0.00 0.00 76 1021.6
20260831010904 82 70 1.0 1.0 0.00 0.00 0.00 75 1021.6
20260831010359 83 70 1.0 1.0 0.00 0.00 0.00 75 1021.4
20260831005836 83 70 0.0 1.0 0.00 0.00 0.00 74 1021.4
20260831005335 83 70 0.0 2.0 0.00 0.00 0.00 73 1021.4
20260831004833 84 70 1.0 3.0 0.00 0.00 0.00 73 1021.4
20260831004332 84 70 1.0 3.0 0.00 0.00 0.00 72 1021.3
20260831003850 84 70 0.0 2.0 0.00 0.00 0.00 72 1021.3
20260831003345 84 70 0.0 2.0 0.00 0.00 0.00 72 1021.2
20260831002841 84 70 0.0 2.0 0.00 0.00 0.00 71 1021.3
20260831002338 84 70 0.0 1.0 0.00 0.00 0.00 71 1021.2
20260831001836 84 70 0.0 1.0 0.00 0.00 0.00 71 1021.1
20260831001336 85 70 0.0 2.0 0.00 0.00 0.00 70 1021.1
20260831000912 85 70 0.0 3.0 0.00 0.00 0.00 70 1021.1
20260831000347 85 71 0.0 3.0 0.00 0.00 0.00 69 1021.1
20260830235843 85 69 1.0 3.0 0.00 0.00 0.00 68 1021.1
20260830235341 85 81 0.0 0.0 0.00 0.00 0.00 68 1021.1
20260830234837 85 81 0.0 0.0 0.00 0.00 0.00 68 1021.2
20260830234356 85 81 0.0 1.0 0.00 0.00 0.00 68 1021.1
20260830233852 86 81 0.0 3.0 0.00 0.00 0.00 67 1021.2
20260830233331 86 81 0.0 3.0 0.00 0.00 0.00 66 1021.2
20260830232848 86 81 0.0 1.0 0.00 0.00 0.00 66 1021.1
20260830232407 86 81 0.0 1.0 0.00 0.00 0.00 66 1021.2
20260830231842 86 81 0.0 2.0 0.00 0.00 0.00 65 1021.1
20260830231400 87 81 0.0 2.0 0.00 0.00 0.00 65 1021.1
20260830230834 87 81 0.0 2.0 0.00 0.00 0.00 63 1021.1
20260830230349 87 81 1.0 2.0 0.00 0.00 0.00 63 1021.1
20260830225905 87 81 0.0 1.0 0.00 0.00 0.00 64 1021.2
20260830225343 87 81 0.0 1.0 0.00 0.00 0.00 63 1021.1
20260830224840 87 81 0.0 1.0 0.00 0.00 0.00 64 1021.1
20260830224336 87 81 0.0 1.0 0.00 0.00 0.00 64 1021.0
20260830223834 88 81 1.0 2.0 0.00 0.00 0.00 62 1021.1
20260830223409 88 81 1.0 2.0 0.00 0.00 0.00 62 1021.1
20260830222845 88 81 0.0 2.0 0.00 0.00 0.00 61 1021.1
20260830222343 88 81 0.0 3.0 0.00 0.00 0.00 61 1021.1
20260830221840 89 81 1.0 3.0 0.00 0.00 0.00 61 1021.1
20260830221338 89 81 1.0 2.0 0.00 0.00 0.00 60 1021.1
20260830220916 89 81 0.0 3.0 0.00 0.00 0.00 60 1021.1
20260830220348 90 81 2.0 4.0 0.00 0.00 0.00 58 1021.1
20260830215845 90 55 1.0 4.0 0.00 0.00 0.00 59 1021.2
20260830215406 90 98 1.0 3.0 0.00 0.00 0.00 59 1021.2
20260830214841 90 98 2.0 4.0 0.00 0.00 0.00 58 1021.2
20260830214341 90 138 1.0 6.0 0.00 0.00 0.00 58 1021.2
20260830213837 90 121 1.0 4.0 0.00 0.00 0.00 60 1021.3
20260830213336 91 150 0.0 2.0 0.00 0.00 0.00 57 1021.2
20260830212833 92 150 1.0 2.0 0.00 0.00 0.00 58 1021.2
20260830212332 92 150 1.0 3.0 0.00 0.00 0.00 56 1021.2
20260830211848 92 150 0.0 3.0 0.00 0.00 0.00 57 1021.2
20260830211347 93 150 2.0 6.0 0.00 0.00 0.00 55 1021.3
20260830210844 93 111 3.0 6.0 0.00 0.00 0.00 56 1021.3
20260830210339 93 113 3.0 6.0 0.00 0.00 0.00 54 1021.3
20260830205836 93 120 3.0 6.0 0.00 0.00 0.00 53 1021.3
20260830205355 93 121 3.0 5.0 0.00 0.00 0.00 55 1021.2
20260830204831 92 163 1.0 5.0 0.00 0.00 0.00 55 1021.2
20260830204331 92 157 3.0 6.0 0.00 0.00 0.00 55 1021.4
20260830203848 92 5 2.0 4.0 0.00 0.00 0.00 55 1021.4
20260830203404 93 164 2.0 5.0 0.00 0.00 0.00 54 1021.5
20260830202839 94 164 2.0 8.0 0.00 0.00 0.00 54 1021.7
20260830202338 94 167 2.0 8.0 0.00 0.00 0.00 54 1021.6
20260830201854 94 133 4.0 9.0 0.00 0.00 0.00 54 1021.7
20260830201331 93 106 5.0 9.0 0.00 0.00 0.00 55 1021.6
20260830200848 93 209 4.0 7.0 0.00 0.00 0.00 54 1021.7
20260830200344 94 232 2.0 4.0 0.00 0.00 0.00 54 1021.9
20260830195844 94 122 2.0 9.0 0.00 0.00 0.00 52 1021.8
20260830195342 94 117 2.0 9.0 0.00 0.00 0.00 53 1022.0
20260830194840 94 140 4.0 9.0 0.00 0.00 0.00 53 1022.1
20260830194339 94 117 5.0 8.0 0.00 0.00 0.00 53 1022.1
20260830193833 93 189 3.0 7.0 0.00 0.00 0.00 55 1022.1
20260830193348 93 141 3.0 8.0 0.00 0.00 0.00 55 1022.1
20260830192845 92 210 2.0 5.0 0.00 0.00 0.00 57 1022.2
20260830192341 91 196 2.0 5.0 0.00 0.00 0.00 59 1022.4
20260830191838 91 80 3.0 8.0 0.00 0.00 0.00 60 1022.4
20260830191337 91 132 5.0 8.0 0.00 0.00 0.00 58 1022.5
20260830190834 92 62 1.0 4.0 0.00 0.00 0.00 58 1022.6
20260830190348 92 61 2.0 5.0 0.00 0.00 0.00 58 1022.8
20260830185908 92 238 1.0 9.0 0.00 0.00 0.00 59 1022.7
20260830185404 92 210 4.0 10.0 0.00 0.00 0.00 59 1023.0
20260830184838 91 161 2.0 10.0 0.00 0.00 0.00 59 1022.9
20260830184337 91 108 2.0 8.0 0.00 0.00 0.00 61 1023.0
20260830183835 91 189 1.0 8.0 0.00 0.00 0.00 61 1023.1
20260830183334 91 88 5.0 8.0 0.00 0.00 0.00 62 1023.0
20260830182832 90 231 1.0 8.0 0.00 0.00 0.00 62 1023.2
20260830182331 90 140 4.0 10.0 0.00 0.00 0.00 62 1023.3
20260830181846 90 186 6.0 10.0 0.00 0.00 0.00 64 1023.4
20260830181346 89 104 2.0 6.0 0.00 0.00 0.00 63 1023.5
20260830180844 89 180 3.0 5.0 0.00 0.00 0.00 64 1023.5
20260830180339 89 135 2.0 8.0 0.00 0.00 0.00 64 1023.5
20260830175836 89 86 3.0 8.0 0.00 0.00 0.00 64 1023.6
20260830175336 89 107 4.0 7.0 0.00 0.00 0.00 64 1023.7
20260830174834 89 205 3.0 9.0 0.00 0.00 0.00 64 1023.7
20260830174410 89 152 5.0 9.0 0.00 0.00 0.00 65 1023.8
20260830173845 89 296 2.0 9.0 0.00 0.00 0.00 64 1023.9
20260830173341 89 111 6.0 9.0 0.00 0.00 0.00 66 1023.9
20260830172837 88 176 1.0 7.0 0.00 0.00 0.00 68 1024.0
20260830172336 88 105 1.0 8.0 0.00 0.00 0.00 68 1023.9
20260830171833 88 165 3.0 8.0 0.00 0.00 0.00 68 1024.1
20260830171336 88 190 1.0 4.0 0.00 0.00 0.00 66 1024.3
20260830170908 88 190 1.0 6.0 0.00 0.00 0.00 66 1024.5
20260830170346 89 96 1.0 7.0 0.00 0.00 0.00 66 1024.5
20260830165843 89 244 2.0 9.0 0.00 0.00 0.00 66 1024.5
20260830165342 88 123 4.0 9.0 0.00 0.00 0.00 68 1024.6
20260830164838 88 145 3.0 10.0 0.00 0.00 0.00 69 1024.7
20260830164337 88 141 4.0 10.0 0.00 0.00 0.00 68 1024.6
20260830163837 87 129 4.0 9.0 0.00 0.00 0.00 69 1024.8
20260830163350 87 94 4.0 9.0 0.00 0.00 0.00 70 1024.8
20260830162848 87 205 4.0 10.0 0.00 0.00 0.00 70 1024.8
20260830162347 86 174 5.0 10.0 0.00 0.00 0.00 73 1024.9
20260830161845 86 94 3.0 8.0 0.00 0.00 0.00 74 1024.8
20260830161345 85 74 4.0 8.0 0.00 0.00 0.00 74 1025.0
20260830160842 85 107 4.0 7.0 0.00 0.00 0.00 75 1024.9
20260830160337 84 202 3.0 6.0 0.00 0.00 0.00 74 1024.9
20260830155852 84 94 2.0 6.0 0.00 0.00 0.00 77 1024.8
20260830155410 84 173 3.0 8.0 0.00 0.00 0.00 76 1024.9
20260830154908 84 207 4.0 8.0 0.00 0.00 0.00 76 1024.9
20260830154346 83 117 2.0 5.0 0.00 0.00 0.00 79 1024.9
20260830153841 83 148 2.0 5.0 0.00 0.00 0.00 80 1025.1
20260830153341 83 223 1.0 4.0 0.00 0.00 0.00 80 1025.1
20260830152854 82 121 2.0 6.0 0.00 0.00 0.00 80 1025.0
20260830152332 82 185 2.0 6.0 0.00 0.00 0.00 80 1025.2
20260830151831 82 204 3.0 6.0 0.00 0.00 0.00 80 1025.2
20260830151410 83 180 2.0 6.0 0.00 0.00 0.00 80 1025.1
20260830150842 82 116 1.0 6.0 0.00 0.00 0.00 80 1025.1
20260830150357 82 119 3.0 6.0 0.00 0.00 0.00 81 1025.2
20260830145834 82 175 3.0 7.0 0.00 0.00 0.00 82 1025.1
20260830145332 81 193 4.0 7.0 0.00 0.00 0.00 82 1025.2
20260830144848 81 111 2.0 6.0 0.00 0.00 0.00 82 1025.2
20260830144347 81 174 1.0 6.0 0.00 0.00 0.00 82 1025.1
20260830143844 81 201 1.0 6.0 0.00 0.00 0.00 82 1025.1
20260830143340 81 188 2.0 4.0 0.00 0.00 0.00 82 1025.1
20260830142858 81 153 1.0 5.0 0.00 0.00 0.00 83 1025.1
20260830142335 81 170 1.0 5.0 0.00 0.00 0.00 83 1025.0
20260830141830 81 76 3.0 4.0 0.00 0.00 0.00 83 1025.0
20260830141330 81 104 0.0 6.0 0.00 0.00 0.00 82 1025.1
20260830140848 81 140 3.0 7.0 0.00 0.00 0.00 82 1025.1
20260830140403 81 115 4.0 7.0 0.00 0.00 0.00 81 1025.1
20260830135839 82 178 3.0 8.0 0.00 0.00 0.00 81 1025.0
20260830135339 82 215 3.0 8.0 0.00 0.00 0.00 82 1025.0
20260830134838 82 127 2.0 7.0 0.00 0.00 0.00 81 1025.0
20260830134357 81 83 4.0 7.0 0.00 0.00 0.00 82 1025.0
20260830133833 81 94 2.0 5.0 0.00 0.00 0.00 83 1024.9
20260830133349 81 104 2.0 4.0 0.00 0.00 0.00 83 1024.9
20260830132845 80 129 2.0 6.0 0.00 0.00 0.00 84 1024.9
20260830132343 80 115 1.0 6.0 0.00 0.00 0.00 85 1024.9
20260830131838 80 111 3.0 6.0 0.00 0.00 0.00 85 1024.9
20260830131336 79 146 1.0 3.0 0.00 0.00 0.00 86 1024.8
20260830130853 79 150 0.0 2.0 0.00 0.00 0.00 87 1024.9
20260830130346 78 189 0.0 2.0 0.00 0.00 0.00 88 1024.8
20260830125842 78 194 2.0 2.0 0.00 0.00 0.00 89 1024.8
20260830125341 77 195 0.0 1.0 0.00 0.00 0.00 89 1024.7
20260830124839 77 195 0.0 0.0 0.00 0.00 0.00 90 1024.7
20260830124337 76 195 0.0 0.0 0.00 0.00 0.00 91 1024.6
20260830123913 76 195 0.0 0.0 0.00 0.00 0.00 92 1024.7
20260830123347 76 195 0.0 0.0 0.00 0.00 0.00 93 1024.6
20260830122906 75 195 0.0 0.0 0.00 0.00 0.00 94 1024.6
20260830122343 74 195 0.0 0.0 0.00 0.00 0.00 95 1024.5
20260830121839 74 195 0.0 0.0 0.00 0.00 0.00 95 1024.6
20260830121342 74 195 0.0 0.0 0.00 0.00 0.00 95 1024.4
20260830120839 73 195 0.0 0.0 0.00 0.00 0.00 96 1024.3
20260830120333 73 195 0.0 0.0 0.00 0.00 0.00 96 1024.3
20260830115831 73 195 0.0 0.0 0.00 0.00 0.00 96 1024.2
20260830115350 73 195 0.0 0.0 0.00 0.00 0.00 96 1024.3
20260830114846 72 195 0.0 0.0 0.00 0.00 0.00 96 1024.4
20260830114345 72 195 0.0 0.0 0.00 0.00 0.00 96 1024.3
20260830113843 72 195 0.0 0.0 0.00 0.00 0.00 96 1024.0
20260830113338 72 195 0.0 0.0 0.00 0.00 0.00 95 1023.9
20260830112834 72 195 0.0 0.0 0.00 0.00 0.00 95 1023.8
20260830112333 72 195 0.0 0.0 0.00 0.00 0.00 95 1023.8
20260830111830 72 195 0.0 0.0 0.00 0.00 0.00 95 1023.6
20260830111409 72 195 0.0 0.0 0.00 0.00 0.00 95 1023.5
20260830110847 73 195 0.0 0.0 0.00 0.00 0.00 95 1023.5
20260830110342 73 195 0.0 0.0 0.00 0.00 0.00 95 1023.6
20260830105839 73 195 0.0 0.0 0.00 0.00 0.00 95 1023.5
20260830105342 73 195 0.0 0.0 0.00 0.00 0.00 95 1023.4
20260830104838 73 195 0.0 0.0 0.00 0.00 0.00 94 1023.4
20260830104337 73 195 0.0 0.0 0.00 0.00 0.00 94 1023.3
20260830103853 73 195 0.0 0.0 0.00 0.00 0.00 94 1023.3
20260830103348 73 195 0.0 0.0 0.00 0.00 0.00 94 1023.4
20260830102905 73 195 0.0 0.0 0.00 0.00 0.00 94 1023.3
20260830102341 73 195 0.0 0.0 0.00 0.00 0.00 94 1023.4
20260830101837 73 195 0.0 0.0 0.00 0.00 0.00 94 1023.4
20260830101356 73 195 0.0 0.0 0.00 0.00 0.00 94 1023.3
20260830100913 73 195 0.0 0.0 0.00 0.00 0.00 94 1023.3
20260830100348 73 195 0.0 0.0 0.00 0.00 0.00 94 1023.3
20260830095844 73 195 0.0 0.0 0.00 0.00 0.00 94 1023.2
20260830095343 73 195 0.0 0.0 0.00 0.00 0.00 93 1023.2
20260830094838 73 195 0.0 0.0 0.00 0.00 0.00 93 1023.3
20260830094337 73 195 0.0 0.0 0.00 0.00 0.00 93 1023.3
20260830093835 73 195 0.0 0.0 0.00 0.00 0.00 93 1023.4
20260830093410 73 195 0.0 1.0 0.00 0.00 0.00 93 1023.4
20260830092845 73 195 0.0 1.0 0.00 0.00 0.00 93 1023.3
20260830092345 74 195 0.0 1.0 0.00 0.00 0.00 93 1023.4
20260830091840 74 195 0.0 1.0 0.00 0.00 0.00 93 1023.2
20260830091343 74 195 0.0 1.0 0.00 0.00 0.00 93 1023.3
20260830090842 74 195 0.0 1.0 0.00 0.00 0.00 93 1023.2
20260830090337 74 195 0.0 1.0 0.00 0.00 0.00 92 1023.2
20260830085833 74 195 0.0 1.0 0.00 0.00 0.00 92 1023.2
20260830085332 74 195 0.0 1.0 0.00 0.00 0.00 92 1023.1
20260830084848 74 195 0.0 0.0 0.00 0.00 0.00 92 1023.1
20260830084346 74 195 0.0 0.0 0.00 0.00 0.00 92 1023.0
20260830083843 74 195 0.0 1.0 0.00 0.00 0.00 91 1023.0
20260830083338 74 195 0.0 1.0 0.00 0.00 0.00 91 1023.1
20260830082835 75 195 0.0 1.0 0.00 0.00 0.00 91 1023.0
20260830082334 75 195 0.0 1.0 0.00 0.00 0.00 90 1022.9
20260830081832 75 195 0.0 1.0 0.00 0.00 0.00 90 1023.0
20260830081411 75 195 0.0 2.0 0.00 0.00 0.00 90 1023.0
20260830080844 75 195 0.0 2.0 0.00 0.00 0.00 89 1023.0
20260830080339 76 195 1.0 2.0 0.00 0.00 0.00 89 1022.8
20260830075856 76 195 0.0 1.0 0.00 0.00 0.00 89 1022.8
20260830075334 76 195 0.0 1.0 0.00 0.00 0.00 89 1022.9
20260830074835 76 195 0.0 1.0 0.00 0.00 0.00 88 1022.8
20260830074335 76 195 0.0 3.0 0.00 0.00 0.00 88 1022.8
20260830073850 76 135 1.0 4.0 0.00 0.00 0.00 88 1022.8
20260830073346 76 135 1.0 4.0 0.00 0.00 0.00 88 1022.8
20260830072843 76 140 2.0 7.0 0.00 0.00 0.00 88 1022.8
20260830072342 76 145 2.0 7.0 0.00 0.00 0.00 88 1022.9
20260830071838 76 138 2.0 6.0 0.00 0.00 0.00 88 1022.8
20260830071337 76 75 3.0 6.0 0.00 0.00 0.00 89 1023.0
20260830070835 76 140 3.0 4.0 0.00 0.00 0.00 89 1022.8
20260830070330 75 124 2.0 3.0 0.00 0.00 0.00 89 1022.9
20260830065845 75 132 1.0 3.0 0.00 0.00 0.00 89 1022.7
20260830065404 75 132 1.0 3.0 0.00 0.00 0.00 89 1022.9
20260830064902 75 121 0.0 0.0 0.00 0.00 0.00 89 1022.8
20260830064340 75 121 0.0 0.0 0.00 0.00 0.00 89 1022.8
20260830063838 75 121 0.0 0.0 0.00 0.00 0.00 89 1023.0
20260830063334 75 121 0.0 0.0 0.00 0.00 0.00 89 1023.0
20260830062909 75 121 0.0 0.0 0.00 0.00 0.00 89 1023.0
20260830062347 75 121 0.0 0.0 0.00 0.00 0.00 89 1023.0
20260830061844 75 121 0.0 0.0 0.00 0.00 0.00 89 1023.1
20260830061346 75 121 0.0 0.0 0.00 0.00 0.00 89 1022.9
20260830060840 76 121 0.0 0.0 0.00 0.00 0.00 89 1023.0
20260830060334 76 121 0.0 0.0 0.00 0.00 0.00 89 1023.0
20260830055830 76 121 0.0 0.0 0.00 0.00 0.00 89 1023.0
20260830054907 76 121 0.0 0.0 0.00 0.00 0.00 88 1023.0
20260830054346 76 121 0.0 0.0 0.00 0.00 0.00 88 1023.1
20260830053843 76 121 0.0 0.0 0.00 0.00 0.00 88 1023.1
20260830053339 76 121 0.0 0.0 0.00 0.00 0.00 88 1023.0
20260830052836 76 121 0.0 0.0 0.00 0.00 0.00 88 1023.1
20260830052331 76 121 0.0 0.0 0.00 0.00 0.00 88 1023.0
20260830051909 76 121 0.0 0.0 0.00 0.00 0.00 88 1023.0
20260830051348 76 121 0.0 0.0 0.00 0.00 0.00 88 1023.1
20260830050844 76 121 0.0 0.0 0.00 0.00 0.00 88 1023.3
20260830050338 76 121 0.0 0.0 0.00 0.00 0.00 88 1023.1
20260830045836 76 121 0.0 0.0 0.00 0.00 0.00 88 1023.2
20260830045335 76 121 0.0 0.0 0.00 0.00 0.00 88 1023.1
20260830044833 76 121 0.0 0.0 0.00 0.00 0.00 88 1023.1
20260830044333 77 121 0.0 0.0 0.00 0.00 0.00 88 1023.1
20260830043909 76 121 0.0 1.0 0.00 0.00 0.00 88 1023.1
20260830043344 76 121 0.0 1.0 0.00 0.00 0.00 88 1023.2
20260830042840 76 121 0.0 1.0 0.00 0.00 0.00 88 1023.2
20260830042400 76 121 0.0 0.0 0.00 0.00 0.00 88 1023.3
20260830041832 77 121 0.0 1.0 0.00 0.00 0.00 87 1023.3
20260830041410 77 121 0.0 1.0 0.00 0.00 0.00 87 1023.3
20260830040845 77 121 0.0 1.0 0.00 0.00 0.00 87 1023.3
20260830040341 77 121 0.0 2.0 0.00 0.00 0.00 87 1023.1
20260830035838 77 121 0.0 2.0 0.00 0.00 0.00 87 1023.2
20260830035337 77 121 0.0 3.0 0.00 0.00 0.00 87 1023.2
20260830034833 77 121 1.0 3.0 0.00 0.00 0.00 87 1023.3
20260830034329 77 121 1.0 3.0 0.00 0.00 0.00 87 1023.3
20260830033907 77 144 0.0 3.0 0.00 0.00 0.00 87 1023.3
20260830033402 77 150 1.0 3.0 0.00 0.00 0.00 87 1023.4
20260830032837 77 154 0.0 2.0 0.00 0.00 0.00 87 1023.4
20260830032336 77 154 0.0 2.0 0.00 0.00 0.00 87 1023.4
20260830031834 77 154 1.0 2.0 0.00 0.00 0.00 87 1023.3
20260830031353 77 154 0.0 0.0 0.00 0.00 0.00 87 1023.2
20260830030847 77 154 0.0 0.0 0.00 0.00 0.00 87 1023.1
20260830030341 77 154 0.0 0.0 0.00 0.00 0.00 87 1023.1
20260830025836 78 154 0.0 0.0 0.00 0.00 0.00 87 1023.1
20260830025339 78 154 0.0 0.0 0.00 0.00 0.00 87 1023.1
20260830024835 78 154 0.0 0.0 0.00 0.00 0.00 87 1023.0
20260830024335 78 154 0.0 0.0 0.00 0.00 0.00 87 1023.0
20260830023850 78 154 0.0 2.0 0.00 0.00 0.00 87 1022.8
20260830023345 78 154 0.0 2.0 0.00 0.00 0.00 87 1022.9
20260830022842 78 154 0.0 1.0 0.00 0.00 0.00 87 1022.7
20260830022341 78 154 0.0 1.0 0.00 0.00 0.00 86 1022.7
20260830021836 79 154 0.0 1.0 0.00 0.00 0.00 86 1022.6
20260830021336 79 154 0.0 1.0 0.00 0.00 0.00 86 1022.4
20260830020853 79 154 0.0 1.0 0.00 0.00 0.00 85 1022.5
20260830020347 79 154 0.0 1.0 0.00 0.00 0.00 85 1022.4
20260830015904 79 154 0.0 2.0 0.00 0.00 0.00 85 1022.4
20260830015342 79 154 1.0 2.0 0.00 0.00 0.00 85 1022.3
20260830014839 79 154 0.0 0.0 0.00 0.00 0.00 84 1022.2